Location: Boiro
(42.6475°N, 8.8834°W)
Time: 17:27:36
(UTC+01:00)

Tiros 1 - Pass Details

Date: 11 December 2021
Orbit: 630 x 663 km, 48.4° (Epoch: 20 January)

Event Time Altitude Azimuth Distance (km) Brightness Sun altitude
Rises 15:56:50 0° 199° (SSW) 2,899 12.0 16.0°
Reaches altitude 10° 15:59:37 10° 183° (S) 1,996 10.8 15.7°
Maximum altitude 16:02:58 20° 135° (SE) 1,442 9.2 15.3°
Drops below altitude 10° 16:06:22 10° 88° (E) 2,009 9.4 15.0°
Sets 16:09:10 0° 72° (ENE) 2,924 10.0 14.6°
